N722CP KUZA-KLKR

Flight info

Callsign N722CP
Flight time N/A
Altitude 3500
Route VFR
Aircraft C90/L-R/L

Departure

Time 2026-04-26 16:40
Airport Rock Hill - York County Airport (KUZA)

Arrival

Time N/A
Airport Lancaster County-Mc Whirter Field (KLKR)
Time Latitude Longitude Altitude Speed Heading
2026-04-26 16:28 34.98571 -81.05974 660 ft 0 kts 100°
2026-04-26 16:34 34.98581 -81.05932 659 ft 8 kts 97°
2026-04-26 16:34 34.98608 -81.05896 658 ft 7 kts 12°
2026-04-26 16:34 34.98653 -81.05888 658 ft 4 kts
2026-04-26 16:34 34.98669 -81.05884 658 ft 3 kts 16°
2026-04-26 16:35 34.98738 -81.05865 658 ft 15 kts 12°
2026-04-26 16:35 34.98839 -81.05840 659 ft 13 kts 11°
2026-04-26 16:35 34.98924 -81.05819 661 ft 11 kts 12°
2026-04-26 16:35 34.98994 -81.05802 662 ft 9 kts 11°
2026-04-26 16:36 34.99034 -81.05793 662 ft 8 kts 11°
2026-04-26 16:36 34.99097 -81.05778 663 ft 10 kts 11°
2026-04-26 16:36 34.99221 -81.05748 661 ft 16 kts 11°
2026-04-26 16:36 34.99343 -81.05718 660 ft 17 kts 11°
2026-04-26 16:37 34.99461 -81.05691 657 ft 15 kts 11°
2026-04-26 16:37 34.99526 -81.05674 655 ft 5 kts 26°
2026-04-26 16:37 34.99536 -81.05647 655 ft 3 kts 90°
2026-04-26 16:37 34.99535 -81.05639 654 ft 0 kts 99°
2026-04-26 16:38 34.99534 -81.05629 654 ft 2 kts 101°
2026-04-26 16:38 34.99530 -81.05602 654 ft 7 kts 102°
2026-04-26 16:38 34.99485 -81.05549 654 ft 6 kts 184°
2026-04-26 16:39 34.99340 -81.05584 657 ft 51 kts 191°
2026-04-26 16:39 34.98827 -81.05706 657 ft 94 kts 190°
2026-04-26 16:39 34.98367 -81.05821 689 ft 106 kts 190°
2026-04-26 16:39 34.97394 -81.06059 948 ft 107 kts 188°
2026-04-26 16:40 34.96660 -81.06222 1169 ft 109 kts 191°
2026-04-26 16:40 34.96166 -81.06340 1371 ft 106 kts 189°
2026-04-26 16:40 34.95215 -81.06174 1614 ft 109 kts 133°
2026-04-26 16:40 34.94746 -81.05461 1818 ft 110 kts 118°
2026-04-26 16:41 34.94355 -81.04682 2092 ft 105 kts 108°
2026-04-26 16:41 34.94009 -81.03868 2265 ft 112 kts 109°
2026-04-26 16:41 34.93728 -81.03017 2542 ft 106 kts 101°
2026-04-26 16:41 34.93528 -81.02095 2841 ft 117 kts 95°
2026-04-26 16:42 34.93368 -81.01154 3168 ft 112 kts 93°
2026-04-26 16:42 34.93216 -81.00210 3180 ft 112 kts 92°
2026-04-26 16:42 34.93087 -80.99248 3242 ft 121 kts 89°
2026-04-26 16:42 34.93025 -80.98520 3193 ft 138 kts 89°
2026-04-26 16:43 34.92945 -80.96742 3060 ft 175 kts 86°
2026-04-26 16:43 34.92932 -80.95185 3081 ft 189 kts 86°
2026-04-26 16:43 34.92927 -80.93521 3064 ft 198 kts 85°
2026-04-26 16:43 34.92926 -80.91851 3091 ft 202 kts 87°
2026-04-26 16:44 34.92872 -80.90106 3079 ft 207 kts 91°
2026-04-26 16:44 34.92541 -80.88390 3146 ft 209 kts 107°
2026-04-26 16:44 34.92095 -80.87327 3166 ft 213 kts 120°
2026-04-26 16:44 34.91018 -80.86059 3141 ft 217 kts 146°
2026-04-26 16:45 34.89137 -80.85284 3005 ft 221 kts 164°
2026-04-26 16:45 34.87637 -80.84866 2922 ft 219 kts 165°
2026-04-26 16:45 34.86179 -80.84455 2909 ft 212 kts 165°
2026-04-26 16:45 34.84725 -80.84091 2575 ft 217 kts 169°
2026-04-26 16:46 34.83714 -80.83981 2281 ft 222 kts 171°
2026-04-26 16:46 34.82381 -80.83631 2791 ft 186 kts 161°
2026-04-26 16:46 34.80804 -80.82999 3003 ft 173 kts 158°
2026-04-26 16:46 34.79648 -80.82491 2980 ft 177 kts 157°
2026-04-26 16:47 34.78875 -80.82149 2995 ft 178 kts 158°
2026-04-26 16:47 34.77320 -80.81628 3092 ft 168 kts 167°
2026-04-26 16:47 34.76563 -80.81510 2983 ft 162 kts 172°
2026-04-26 16:47 34.75123 -80.81720 2774 ft 156 kts 203°
2026-04-26 16:48 34.74365 -80.82654 2504 ft 165 kts 241°
2026-04-26 16:48 34.74037 -80.84020 2259 ft 165 kts 258°
2026-04-26 16:48 34.73954 -80.85391 2042 ft 164 kts 268°
2026-04-26 16:48 34.73987 -80.86317 1855 ft 166 kts 274°
2026-04-26 16:49 34.74206 -80.88150 1609 ft 161 kts 281°
2026-04-26 16:49 34.74407 -80.89424 1625 ft 140 kts 280°
2026-04-26 16:49 34.74569 -80.90471 1539 ft 114 kts 280°
2026-04-26 16:49 34.74683 -80.91455 1652 ft 123 kts 274°
2026-04-26 16:50 34.74764 -80.92473 1682 ft 126 kts 274°
2026-04-26 16:50 34.74785 -80.93607 1725 ft 132 kts 258°
2026-04-26 16:50 34.74363 -80.94453 1589 ft 118 kts 204°
2026-04-26 16:50 34.73823 -80.94534 1625 ft 120 kts 159°
2026-04-26 16:51 34.73248 -80.93557 1682 ft 110 kts 87°
2026-04-26 16:51 34.73559 -80.92697 1623 ft 113 kts 64°
2026-04-26 16:51 34.73585 -80.91816 1624 ft 106 kts 121°
2026-04-26 16:51 34.72975 -80.91260 1505 ft 115 kts 155°
2026-04-26 16:52 34.72211 -80.90984 1485 ft 114 kts 163°
2026-04-26 16:52 34.71951 -80.90917 1455 ft 116 kts 165°
2026-04-26 16:52 34.70720 -80.90533 1492 ft 103 kts 142°
2026-04-26 16:52 34.70358 -80.89829 1450 ft 99 kts 98°
2026-04-26 16:53 34.70454 -80.89074 1098 ft 102 kts 65°
2026-04-26 16:53 34.70892 -80.88223 887 ft 118 kts 59°
2026-04-26 16:53 34.71297 -80.87407 706 ft 113 kts 60°
2026-04-26 16:53 34.71692 -80.86634 537 ft 97 kts 60°
2026-04-26 16:54 34.71998 -80.86031 457 ft 62 kts 56°